Voltar ao catálogo

COSMOS 2251 DEB

AtivoLEO
NORAD 34045·DEBRIS·🇷🇺 Russia

Lançado Jun 16, 1993 de Plesetsk Cosmodrome

Loading…

Próximas Passagens (próximas 24 horas)

TLE

AtualizadoSource: Space-Track

Época: Sep 14, 2026, 05:25 UTC

1 34045U 93036JG  26257.22599355  .00000121  00000-0  52441-4 0  9993
2 34045  74.0398 166.7114 0026683 187.8895 327.2088 14.34186892919821

Acompanhe COSMOS 2251 DEB em tempo real com AllMySat

Download on the App Store